Regional Weather Roundup
Issued by NWS Wilmington, NC

Home | Current Version | Previous Version | Text Only | Print | Product List | Glossary On
Versions: 1 2 3 4 5 6 7 8 9 10 11 12 13 14 15 16 17 18 19 20 21 22 23 24 25 26 27 28 29 30 31 32 33 34 35 36 37 38 39 40 41 42 43 44 45 46 47 48 49 50
000
ASUS42 KILM 261113
RWRILM
RWRILM
REGIONAL HOURLY WEATHER ROUNDUP
NATIONAL WEATHER SERVICE WILMINGTON NC
700 AM EDT SUN APR 26 2015

NOTE: "FAIR" INDICATES FEW OR NO CLOUDS BELOW 12,000 FEET WITH NO
SIGNIFICANT WEATHER AND/OR OBSTRUCTIONS TO VISIBILITY.

...............WFO WILMINGTON COUNTY WARNING AREA...............

......COASTAL NC AND SC COUNTIES......

CITY           SKY/WX    TMP DP  RH WIND       PRES   REMARKS
WILMINGTON     CLOUDY    62  61  96 NE8       29.55R FOG
N MYRTLE BEACH MOCLDY    67  63  87 W7        29.56R
MYRTLE BEACH   PTCLDY    66  63  88 W9        29.58S

......INLAND NC AND SC COUNTIES.......

CITY           SKY/WX    TMP DP  RH WIND       PRES   REMARKS
LUMBERTON      CLOUDY    59  57  93 N5        29.56R FOG
ELIZABETHTOWN  CLOUDY    57  57 100 E3        29.55F FOG
WHITEVILLE     DRIZZLE   63  62  94 CALM      29.55R
FLORENCE       MOCLDY    65  63  93 SW8       29.56S
DARLINGTON     CLOUDY    63  61  94 N6        29.57R

....................REST OF NORTH CAROLINA......................

.........EASTERN NC.........

CITY           SKY/WX    TMP DP  RH WIND       PRES   REMARKS
CAPE HATTERAS  CLOUDY    51  51 100 NE10G20   29.57R
JACKSONVILLE   CLOUDY    54  50  87 N8        29.59R VSB 3/4
MOREHEAD CITY  LGT RAIN  56  56 100 NE10      29.57R
KENANSVILLE    CLOUDY    50  50  98 N9        29.60R FOG
NEW BERN       CLOUDY    53  52  96 NE8       29.59R FOG
ELIZABETH CITY CLOUDY    48  45  89 N17       29.61S

.........CENTRAL NC.........

CITY           SKY/WX    TMP DP  RH WIND       PRES   REMARKS
RALEIGH DURHAM CLOUDY    46  45  93 NE5       29.63R FOG
ROCKY MOUNT    CLOUDY    48  47  96 NE6       29.62R FOG
ROANOKE RAPIDS NOT AVBL
FAYETTEVILLE   CLOUDY    51  50  96 N14       29.59R FOG
HOFFMAN        LGT RAIN  50  50 100 N12       29.63R FOG

.........WESTERN NC.........

CITY           SKY/WX    TMP DP  RH WIND       PRES   REMARKS
CHARLOTTE      DRZL/FOG  49  47  93 N7        29.61R VSB 1/2
GREENSBORO     DRIZZLE   43  42  97 N8        29.63R FOG
HICKORY        NOT AVBL
BOONE          NOT AVBL
ASHEVILLE      NOT AVBL

.....................REST OF SOUTH CAROLINA.....................

.........EASTERN SC.........

CITY           SKY/WX    TMP DP  RH WIND       PRES   REMARKS
CHARLESTON     PTCLDY    65  62  90 W10       29.62R
BEAUFORT MCAS  CLEAR     66  63  90 W13       29.66R
HILTON HEAD    CLEAR     68  66  94 SW12      29.67R

.........CENTRAL SC.........

CITY           SKY/WX    TMP DP  RH WIND       PRES   REMARKS
COLUMBIA       CLEAR     66  62  87 W8        29.59R
ORANGEBURG     CLOUDY    66  62  87 W9        29.62R
SUMTER SHAW    CLOUDY    66  64  94 W12       29.57S

.........WESTERN SC.........

CITY           SKY/WX    TMP DP  RH WIND       PRES   REMARKS
GREENVILLE     NOT AVBL
ROCK HILL      CLOUDY    51  50  96 CALM      29.61R FOG
ANDERSON       PTCLDY    62  62 100 SW6       29.60S FOG
CLEMSON        NOT AVBL
GREENWOOD      MOCLDY    65  63  93 SW10      29.62S


...................COASTAL AND OFFSHORE REPORTS..................

................LOCAL PIERS AND NC RESERVE................


STATION/POSITION TIME  SKY/WX   TEMP    WIND        PRES    VSBY
                                AIR SEA DIR/SP/G
                 (UTC)          (F)     (DEG/KT/KT) (MB)    (MI)
JOHNY MRCER PIER 1000            63 67   50/  8/  8  999.6F
NC RESRV MASNBRO NOT AVBL
OCEAN CREST PIER 1102            67 66  230/ 14/ 16  999.9R
SPRINGMAID  PIER 1000            66 67  240/  8/ 11 1000.7S


................COASTAL AND OFFSHORE BUOYS................


STATION/POSITION TIME  SKY/WX   TEMP    WIND        PRES    VSBY
                                AIR SEA DIR/SP/G
                 (UTC)          (F)     (DEG/KT/KT) (MB)    (MI)
DIMNDSHOAL 41025 1050            60 68   20/ 16/ 19 1000.3R
WVE H/P(F/S)=  4/ 8 WND WVE H/P(F/S)=  3/ 4 SWL H/P/D(F/S/D)=  3/130/ 8

CAPE LOOKOUT     1100            58      10/  8/ 10 1000.7R
ONSLOW BAY 41036 NOT AVBL
5 WRITEBCH 41038 1008            64 65   60/  6/ 10 1000.3R
MASONBORO  41110 1019               65                N/A
WVE H/P(F/S)=  4/ 7 WND WVE H/P(F/S)=  3/ 7

WILM HARBR 41108 1011               65                N/A
WVE H/P(F/S)=  5/ 6 WND WVE H/P(F/S)=  5/ 6

27WRITEBCH 41037 1000            67 72  270/ 16/ 17   N/A
FRYING PAN 41013 1050            71 71  250/ 23/ 27 1000.9R
WVE H/P(F/S)=  6/ 7 WND WVE H/P(F/S)=  7/ 7

SUNST NRSH 41024 1008            67     260/ 10/ 14   N/A
CAPRS NRSH 41029 1008            69     250/ 17/ 23 1002.6R
EDISTO     41004 1050            71 71  250/ 21/ 27 1002.0R
WVE H/P(F/S)=  5/ 6 WND WVE H/P(F/S)=  5/ 6 SWL H/P/D(F/S/D)=  2/ 8



..........OFFSHORE BUOYS BEYOND 100 NM OFFSHORE...........
.....IN A TRIANGLE---HAT TO BERMUDA TO BAHAMAS TO HAT.....


STATION/POSITION TIME  SKY/WX   TEMP    WIND        PRES    VSBY
                                AIR SEA DIR/SP/G
                 (UTC)          (F)     (DEG/KT/KT) (MB)    (MI)
150E HAT   41001 NOT AVBL
W BERMUDA  41048 1050            71 69  200/ 21/ 25 1002.0F
WVE H/P(F/S)=  9/ 7 WND WVE H/P(F/S)=  8/ 7

ATLANTIC S 41049 1050            71 76  190/ 10/ 12 1012.0R
WVE H/P(F/S)=  8/11 WND WVE H/P(F/S)=  2/ 3 SWL H/P/D(F/S/D)=  8/330/11

E BAHAMAS  41046 1050            79 81  200/ 16/ 17 1011.0S
WVE H/P(F/S)=  4/ 9 WND WVE H/P(F/S)=  2/ 3 SWL H/P/D(F/S/D)=  3/ 20/ 9

NE BAHAMAS 41047 1050            77 76  240/ 19/ 23 1008.9R
WVE H/P(F/S)=  6/ 9 WND WVE H/P(F/S)=  5/ 5 SWL H/P/D(F/S/D)=  3/330/ 9

120E CANVRL41010 1020            79 79  260/ 21/ 23 1006.2R

END



USA.gov is the U.S. government's official web portal to all federal, state and local government web resources and services.